Regional Weather Roundup
Issued by NWS

Home | Current Version | Previous Version | Text Only | Print | Product List | Glossary Off
Versions: 1 2 3 4 5 6 7 8 9 10 11 12 13 14 15 16 17 18 19 20 21 22 23 24 25 26 27 28 29 30 31 32 33 34 35 36 37 38 39 40 41 42 43 44 45 46 47 48 49 50

000
ASUS43 KFSD 260702
RWRSD

WEATHER ROUNDUP FOR SOUTH DAKOTA
NATIONAL WEATHER SERVICE SIOUX FALLS SD
200 AM CDT FRI AUG 26 2016

NOTE: "FAIR" INDICATES FEW OR NO CLOUDS BELOW 12,000 FEET WITH NO
SIGNIFICANT WEATHER AND/OR OBSTRUCTIONS TO VISIBILITY.


SDZ001>005-009-010-012>017-260800-
NORTHWEST AND NORTH CENTRAL SOUTH DAKOTA

CITY           SKY/WX    TMP DP  RH WIND       PRES   REMARKS
BUFFALO          N/A     52  39  61 S5        30.12F
FAITH            N/A     51  46  83 S10       30.17F
MOBRIDGE       FAIR      53  47  79 SE7       30.15S
$$

SDZ012>016-024>037-041>051-057-063-072>074-260800-
SOUTHWEST AND SOUTH CENTRAL SOUTH DAKOTA

CITY           SKY/WX    TMP DP  RH WIND       PRES   REMARKS
RAPID CTY ARPT MOCLDY    52  44  74 E3        30.21S
PIERRE         FAIR      48  45  89 CALM      30.17F
CUSTER         HVY RAIN  48  45  89 VRB5      30.27R FOG
ELLSWORTH AFB  PTCLDY    56  45  66 S9        30.20S
PHILIP         MOCLDY    52  46  80 CALM      30.20S
PINE RIDGE     CLOUDY    55  50  83 VRB3      30.21S
WINNER         PTSUNNY   56  48  74 S3        30.20F
$$

SDZ004>011-016>023-039-040-260800-
NORTHEAST SOUTH DAKOTA

CITY           SKY/WX    TMP DP  RH WIND       PRES   REMARKS
ABERDEEN       FAIR      48  46  93 SW5       30.17S
WATERTOWN      FAIR      52  49  89 CALM      30.17F
BROOKINGS      FAIR      52  51  97 CALM      30.18S
$$

SDZ017-020-022-023-036>040-048>070-260800-
SOUTHEAST SOUTH DAKOTA

CITY           SKY/WX    TMP DP  RH WIND       PRES   REMARKS
SIOUX FALLS    FAIR      54  52  93 CALM      30.18F
HURON          FAIR      52  48  86 W3        30.18S
CHAMBERLAIN    FAIR      54  49  86 CALM      30.19F
MITCHELL       MOCLDY    53  51  93 CALM      30.18F
YANKTON        FAIR      55  48  76 NW5       30.16F
$$

ABBREVIATIONS USED IN REMARKS
   TC - TEMPERATURE IN CELSIUS
  WCI - WIND CHILL INDEX
   HX - HEAT INDEX
  VSB - VISIBILITY





USA.gov is the U.S. government's official web portal to all federal, state and local government web resources and services.